Time,TemperatureF,DewpointF,PressureIn,WindDirection,WindDirectionDegrees,WindSpeedMPH,WindSpeedGustMPH,Humidity,HourlyPrecipIn,Conditions,Clouds,dailyrainin,SoftwareType,DateUTC
2013-06-05 00:02:00,53.0,49.0,30.08,East,91,0.0,7.0,87,0.00,,,0.67,,2013-06-05 05:02:00,
2013-06-05 00:12:00,53.0,49.0,30.08,East,91,0.0,7.0,87,0.00,,,0.67,,2013-06-05 05:12:00,
2013-06-05 00:22:00,53.0,49.0,30.05,NE,43,0.0,0.0,85,0.00,,,0.67,,2013-06-05 05:22:00,
2013-06-05 00:32:00,53.0,49.0,30.05,SSE,153,0.0,4.0,85,0.00,,,0.67,,2013-06-05 05:32:00,
2013-06-05 00:42:00,53.0,49.0,30.05,SSE,153,0.0,4.0,85,0.00,,,0.67,,2013-06-05 05:42:00,
2013-06-05 00:52:00,53.0,49.0,30.08,ESE,107,0.0,0.0,85,0.00,,,0.67,,2013-06-05 05:52:00,
2013-06-05 01:02:00,53.0,49.0,30.08,SE,145,0.0,0.0,85,0.00,,,0.67,,2013-06-05 06:02:00,
2013-06-05 01:12:00,53.0,49.0,30.08,SE,145,0.0,0.0,85,0.00,,,0.67,,2013-06-05 06:12:00,
2013-06-05 01:22:00,54.0,49.0,30.05,SE,144,0.0,0.0,84,0.00,,,0.67,,2013-06-05 06:22:00,
2013-06-05 01:32:00,54.0,50.0,30.05,SSE,163,0.0,0.0,85,0.00,,,0.67,,2013-06-05 06:32:00,
2013-06-05 01:42:00,54.0,50.0,30.05,SSE,163,0.0,0.0,85,0.00,,,0.67,,2013-06-05 06:42:00,
2013-06-05 01:52:00,54.0,49.0,30.05,ESE,120,0.0,0.0,84,0.00,,,0.67,,2013-06-05 06:52:00,
2013-06-05 02:02:00,54.0,50.0,30.05,East,98,0.0,0.0,85,0.00,,,0.67,,2013-06-05 07:02:00,
2013-06-05 02:12:00,54.0,50.0,30.05,East,98,0.0,0.0,85,0.00,,,0.67,,2013-06-05 07:12:00,
2013-06-05 02:22:00,54.0,50.0,30.05,SSE,151,0.0,0.0,85,0.00,,,0.67,,2013-06-05 07:22:00,
2013-06-05 02:32:00,54.0,50.0,30.05,ESE,106,4.0,4.0,85,0.00,,,0.67,,2013-06-05 07:32:00,
2013-06-05 02:42:00,54.0,50.0,30.05,ESE,106,4.0,4.0,85,0.00,,,0.67,,2013-06-05 07:42:00,
2013-06-05 02:52:00,54.0,50.0,30.05,ESE,120,0.0,0.0,85,0.00,,,0.67,,2013-06-05 07:52:00,
2013-06-05 03:02:00,54.0,50.0,30.02,ESE,117,0.0,0.0,85,0.00,,,0.67,,2013-06-05 08:02:00,
2013-06-05 03:12:00,54.0,50.0,30.02,ESE,117,0.0,0.0,85,0.00,,,0.67,,2013-06-05 08:12:00,
2013-06-05 03:22:00,55.0,51.0,30.02,ESE,123,0.0,0.0,85,0.00,,,0.67,,2013-06-05 08:22:00,
2013-06-05 03:32:00,55.0,50.0,30.02,SE,127,0.0,0.0,84,0.00,,,0.67,,2013-06-05 08:32:00,
2013-06-05 03:42:00,55.0,50.0,30.02,SE,127,0.0,0.0,84,0.00,,,0.67,,2013-06-05 08:42:00,
2013-06-05 03:52:00,55.0,50.0,30.02,SE,127,0.0,0.0,84,0.00,,,0.67,,2013-06-05 08:52:00,
2013-06-05 04:02:00,55.0,51.0,30.02,SE,127,0.0,0.0,85,0.00,,,0.67,,2013-06-05 09:02:00,
2013-06-05 04:12:00,55.0,51.0,30.02,SE,127,0.0,0.0,85,0.00,,,0.67,,2013-06-05 09:12:00,
2013-06-05 04:22:00,55.0,51.0,30.02,SE,127,0.0,0.0,86,0.00,,,0.67,,2013-06-05 09:22:00,
2013-06-05 04:32:00,55.0,51.0,30.02,East,96,0.0,0.0,86,0.00,,,0.67,,2013-06-05 09:32:00,
2013-06-05 04:42:00,55.0,51.0,30.02,East,96,0.0,0.0,86,0.00,,,0.67,,2013-06-05 09:42:00,
2013-06-05 04:53:00,55.0,51.0,30.02,East,96,0.0,0.0,86,0.00,,,0.67,,2013-06-05 09:53:00,
2013-06-05 05:03:00,54.0,51.0,30.05,SE,125,0.0,0.0,88,0.00,,,0.67,,2013-06-05 10:03:00,
2013-06-05 05:12:00,54.0,51.0,30.05,SE,125,0.0,0.0,88,0.00,,,0.67,,2013-06-05 10:12:00,
2013-06-05 05:22:00,55.0,52.0,30.02,East,101,0.0,0.0,89,0.00,,,0.67,,2013-06-05 10:22:00,
2013-06-05 05:33:00,55.0,52.0,30.02,East,101,0.0,0.0,90,0.00,,,0.67,,2013-06-05 10:33:00,
2013-06-05 05:42:00,55.0,52.0,30.02,East,101,0.0,0.0,90,0.00,,,0.67,,2013-06-05 10:42:00,
2013-06-05 05:53:00,55.0,52.0,30.02,East,101,0.0,0.0,91,0.00,,,0.67,,2013-06-05 10:53:00,
2013-06-05 06:02:00,55.0,52.0,30.02,East,101,0.0,0.0,91,0.00,,,0.67,,2013-06-05 11:02:00,
2013-06-05 06:12:00,55.0,52.0,30.02,East,101,0.0,0.0,91,0.00,,,0.67,,2013-06-05 11:12:00,
2013-06-05 06:22:00,55.0,52.0,30.02,East,101,0.0,0.0,91,0.00,,,0.67,,2013-06-05 11:22:00,
2013-06-05 06:32:00,55.0,53.0,30.02,East,101,0.0,0.0,92,0.00,,,0.67,,2013-06-05 11:32:00,
2013-06-05 06:42:00,55.0,53.0,30.02,East,101,0.0,0.0,92,0.00,,,0.67,,2013-06-05 11:42:00,
2013-06-05 06:52:00,55.0,53.0,30.02,East,101,0.0,0.0,93,0.00,,,0.67,,2013-06-05 11:52:00,
2013-06-05 07:02:00,56.0,54.0,30.02,East,101,0.0,0.0,93,0.00,,,0.67,,2013-06-05 12:02:00,
2013-06-05 07:12:00,56.0,54.0,30.02,East,101,0.0,0.0,93,0.00,,,0.67,,2013-06-05 12:12:00,
2013-06-05 07:22:00,56.0,54.0,30.02,East,101,0.0,0.0,93,0.00,,,0.67,,2013-06-05 12:22:00,
2013-06-05 07:32:00,56.0,54.0,29.99,East,101,0.0,0.0,93,0.00,,,0.67,,2013-06-05 12:32:00,
2013-06-05 07:44:00,56.0,54.0,29.99,East,101,0.0,0.0,93,0.00,,,0.67,,2013-06-05 12:44:00,
2013-06-05 07:52:00,56.0,54.0,29.99,East,101,0.0,0.0,93,0.00,,,0.67,,2013-06-05 12:52:00,
2013-06-05 08:02:00,56.0,54.0,29.99,East,101,0.0,0.0,94,0.00,,,0.67,,2013-06-05 13:02:00,
2013-06-05 08:12:00,56.0,54.0,29.99,East,101,0.0,0.0,94,0.00,,,0.67,,2013-06-05 13:12:00,
2013-06-05 08:22:00,56.0,54.0,30.02,East,101,0.0,0.0,94,0.00,,,0.67,,2013-06-05 13:22:00,
2013-06-05 08:32:00,56.0,54.0,30.02,East,101,0.0,0.0,94,0.00,,,0.67,,2013-06-05 13:32:00,
2013-06-05 08:42:00,56.0,54.0,30.02,SE,124,0.0,0.0,94,0.00,,,0.67,,2013-06-05 13:42:00,
2013-06-05 08:52:00,56.0,54.0,30.02,SE,124,0.0,0.0,94,0.00,,,0.67,,2013-06-05 13:52:00,
2013-06-05 09:02:00,57.0,55.0,30.02,SE,124,0.0,0.0,94,0.00,,,0.67,,2013-06-05 14:02:00,
2013-06-05 09:12:00,57.0,55.0,30.02,SE,124,0.0,0.0,94,0.00,,,0.67,,2013-06-05 14:12:00,
2013-06-05 09:22:00,57.0,55.0,30.02,SE,124,0.0,0.0,94,0.00,,,0.67,,2013-06-05 14:22:00,
2013-06-05 09:32:00,57.0,55.0,30.02,SE,124,0.0,0.0,94,0.00,,,0.67,,2013-06-05 14:32:00,
2013-06-05 09:42:00,57.0,55.0,30.02,SE,124,0.0,0.0,94,0.00,,,0.67,,2013-06-05 14:42:00,
2013-06-05 09:52:00,57.0,55.0,30.02,SE,124,0.0,0.0,94,0.00,,,0.67,,2013-06-05 14:52:00,
2013-06-05 10:02:00,58.0,56.0,30.02,SE,124,0.0,0.0,93,0.00,,,0.67,,2013-06-05 15:02:00,
2013-06-05 10:12:00,58.0,56.0,30.02,SE,124,0.0,0.0,93,0.00,,,0.67,,2013-06-05 15:12:00,
2013-06-05 10:22:00,59.0,56.0,29.99,SE,124,0.0,0.0,89,0.00,,,0.67,,2013-06-05 15:22:00,
2013-06-05 10:33:00,59.0,55.0,29.99,SE,124,0.0,0.0,86,0.00,,,0.67,,2013-06-05 15:33:00,
2013-06-05 10:43:00,61.0,53.0,29.99,East,89,0.0,0.0,75,0.00,,,0.67,,2013-06-05 15:43:00,
2013-06-05 10:53:00,61.0,53.0,29.99,East,89,0.0,0.0,75,0.00,,,0.67,,2013-06-05 15:53:00,
2013-06-05 11:03:00,62.0,53.0,29.99,East,89,0.0,0.0,72,0.00,,,0.67,,2013-06-05 16:03:00,
2013-06-05 11:12:00,62.0,53.0,29.99,East,89,0.0,0.0,72,0.00,,,0.67,,2013-06-05 16:12:00,
2013-06-05 11:22:00,62.0,52.0,29.99,East,96,0.0,0.0,71,0.00,,,0.67,,2013-06-05 16:22:00,
2013-06-05 11:32:00,61.0,51.0,29.99,East,96,0.0,0.0,70,0.00,,,0.67,,2013-06-05 16:32:00,
2013-06-05 11:42:00,62.0,52.0,30.02,East,96,0.0,0.0,71,0.00,,,0.67,,2013-06-05 16:42:00,
2013-06-05 11:54:00,62.0,52.0,30.02,East,96,0.0,0.0,71,0.00,,,0.67,,2013-06-05 16:54:00,
2013-06-05 12:02:00,62.0,52.0,30.02,East,96,5.0,5.0,71,0.00,,,0.67,,2013-06-05 17:02:00,
2013-06-05 12:12:00,62.0,52.0,30.02,East,96,5.0,5.0,71,0.00,,,0.67,,2013-06-05 17:12:00,
2013-06-05 12:22:00,62.0,52.0,30.02,SSW,201,0.0,0.0,71,0.00,,,0.67,,2013-06-05 17:22:00,
2013-06-05 12:32:00,62.0,52.0,30.02,SSW,211,0.0,0.0,71,0.00,,,0.67,,2013-06-05 17:32:00,
2013-06-05 12:42:00,61.0,52.0,29.99,SSW,211,0.0,0.0,73,0.00,,,0.67,,2013-06-05 17:42:00,
2013-06-05 12:52:00,61.0,52.0,29.99,SSW,211,0.0,0.0,73,0.00,,,0.67,,2013-06-05 17:52:00,
2013-06-05 13:02:00,61.0,52.0,29.99,SSW,211,0.0,0.0,73,0.00,,,0.67,,2013-06-05 18:02:00,
2013-06-05 13:12:00,61.0,52.0,29.99,SSW,211,0.0,0.0,73,0.00,,,0.67,,2013-06-05 18:12:00,
2013-06-05 13:22:00,62.0,53.0,30.02,WSW,251,0.0,0.0,72,0.00,,,0.67,,2013-06-05 18:22:00,
2013-06-05 13:32:00,62.0,52.0,30.02,WSW,245,0.0,0.0,70,0.00,,,0.67,,2013-06-05 18:32:00,
2013-06-05 13:42:00,62.0,52.0,30.02,West,275,0.0,0.0,71,0.00,,,0.67,,2013-06-05 18:42:00,
2013-06-05 13:52:00,62.0,52.0,30.02,West,275,0.0,0.0,71,0.00,,,0.67,,2013-06-05 18:52:00,
2013-06-05 14:02:00,62.0,52.0,30.02,West,275,0.0,0.0,71,0.00,,,0.67,,2013-06-05 19:02:00,
2013-06-05 14:12:00,62.0,52.0,30.02,West,275,0.0,0.0,71,0.00,,,0.67,,2013-06-05 19:12:00,
2013-06-05 14:23:00,63.0,53.0,29.99,West,275,0.0,0.0,69,0.00,,,0.67,,2013-06-05 19:23:00,
2013-06-05 14:32:00,64.0,53.0,29.99,West,275,0.0,0.0,68,0.00,,,0.67,,2013-06-05 19:32:00,
2013-06-05 14:42:00,64.0,53.0,29.99,West,275,0.0,0.0,68,0.00,,,0.67,,2013-06-05 19:42:00,
2013-06-05 14:53:00,65.0,53.0,29.99,West,275,0.0,0.0,65,0.00,,,0.67,,2013-06-05 19:53:00,
2013-06-05 15:02:00,66.0,52.0,29.99,West,275,0.0,0.0,61,0.00,,,0.67,,2013-06-05 20:02:00,
2013-06-05 15:12:00,65.0,51.0,29.96,West,275,0.0,0.0,60,0.00,,,0.63,,2013-06-05 20:12:00,
2013-06-05 15:22:00,65.0,51.0,29.96,West,275,0.0,0.0,60,0.00,,,0.63,,2013-06-05 20:22:00,
2013-06-05 15:32:00,67.0,52.0,29.96,West,275,0.0,0.0,58,0.00,,,0.59,,2013-06-05 20:32:00,
2013-06-05 15:42:00,67.0,50.0,29.96,West,275,0.0,0.0,55,0.00,,,0.59,,2013-06-05 20:42:00,
2013-06-05 15:52:00,67.0,50.0,29.96,West,275,0.0,0.0,55,0.00,,,0.59,,2013-06-05 20:52:00,
2013-06-05 16:02:00,68.0,51.0,29.96,West,275,0.0,0.0,54,0.00,,,0.59,,2013-06-05 21:02:00,
2013-06-05 16:12:00,68.0,50.0,29.96,West,275,0.0,0.0,53,0.00,,,0.55,,2013-06-05 21:12:00,
2013-06-05 16:22:00,68.0,50.0,29.96,West,275,0.0,0.0,53,0.00,,,0.55,,2013-06-05 21:22:00,
2013-06-05 16:43:00,68.0,50.0,29.96,West,275,0.0,0.0,53,0.00,,,0.55,,2013-06-05 21:43:00,
2013-06-05 16:53:00,68.0,50.0,29.96,West,275,0.0,0.0,53,0.00,,,0.55,,2013-06-05 21:53:00,
2013-06-05 17:02:00,66.0,49.0,29.93,West,275,0.0,0.0,55,0.00,,,0.47,,2013-06-05 22:02:00,
2013-06-05 17:22:00,67.0,50.0,29.93,West,275,0.0,0.0,55,0.00,,,0.47,,2013-06-05 22:22:00,
2013-06-05 17:42:00,68.0,51.0,29.93,West,275,0.0,0.0,54,0.00,,,0.31,,2013-06-05 22:42:00,
2013-06-05 17:52:00,68.0,51.0,29.93,West,275,0.0,0.0,54,0.00,,,0.31,,2013-06-05 22:52:00,
2013-06-05 18:02:00,66.0,50.0,29.93,West,275,0.0,0.0,57,0.00,,,0.31,,2013-06-05 23:02:00,
2013-06-05 18:12:00,67.0,51.0,29.93,West,275,0.0,0.0,57,0.00,,,0.20,,2013-06-05 23:12:00,
2013-06-05 18:22:00,67.0,51.0,29.93,West,275,0.0,0.0,57,0.00,,,0.20,,2013-06-05 23:22:00,
2013-06-05 18:32:00,66.0,51.0,29.93,West,275,0.0,0.0,58,0.00,,,0.20,,2013-06-05 23:32:00,
2013-06-05 18:42:00,66.0,51.0,29.93,West,275,0.0,0.0,58,0.00,,,0.20,,2013-06-05 23:42:00,
2013-06-05 18:53:00,65.0,53.0,29.93,NNE,21,0.0,0.0,65,0.00,,,0.16,,2013-06-05 23:53:00,
2013-06-05 19:02:00,65.0,47.0,29.93,NNE,21,0.0,0.0,53,0.00,,,0.16,,2013-06-06 00:02:00,
2013-06-05 19:22:00,66.0,45.0,29.93,WSW,240,4.0,4.0,46,0.00,,,0.12,,2013-06-06 00:22:00,
2013-06-05 19:32:00,66.0,46.0,29.93,West,265,0.0,0.0,48,0.00,,,0.12,,2013-06-06 00:32:00,
2013-06-05 19:52:00,65.0,45.0,29.93,WNW,284,0.0,5.0,48,0.00,,,0.12,,2013-06-06 00:52:00,
2013-06-05 20:02:00,65.0,45.0,29.93,NW,311,5.0,5.0,49,0.00,,,0.08,,2013-06-06 01:02:00,
2013-06-05 20:22:00,64.0,45.0,29.93,North,357,0.0,0.0,50,0.00,,,0.04,,2013-06-06 01:22:00,
2013-06-05 20:32:00,63.0,44.0,29.93,North,357,0.0,0.0,50,0.00,,,0.04,,2013-06-06 01:32:00,
2013-06-05 20:42:00,63.0,45.0,29.96,North,357,0.0,0.0,51,0.00,,,0.00,,2013-06-06 01:42:00,
2013-06-05 20:53:00,63.0,45.0,29.96,North,357,0.0,0.0,51,0.00,,,0.00,,2013-06-06 01:53:00,
2013-06-05 21:02:00,62.0,45.0,29.96,North,357,0.0,0.0,53,0.00,,,0.00,,2013-06-06 02:02:00,
2013-06-05 21:32:00,61.0,45.0,29.96,North,357,0.0,0.0,56,0.00,,,0.00,,2013-06-06 02:32:00,
2013-06-05 21:42:00,61.0,45.0,29.96,North,357,0.0,0.0,56,0.00,,,0.00,,2013-06-06 02:42:00,
2013-06-05 21:52:00,61.0,45.0,29.96,North,357,0.0,0.0,56,0.00,,,0.00,,2013-06-06 02:52:00,
2013-06-05 22:02:00,60.0,47.0,29.96,NNE,15,6.0,6.0,63,0.00,,,0.00,,2013-06-06 03:02:00,
2013-06-05 22:22:00,61.0,47.0,29.96,NNE,15,0.0,0.0,61,0.00,,,0.00,,2013-06-06 03:22:00,
2013-06-05 22:33:00,60.0,47.0,29.96,NNE,15,0.0,0.0,61,0.00,,,0.00,,2013-06-06 03:33:00,
2013-06-05 22:52:00,59.0,47.0,29.96,NNE,15,0.0,0.0,65,0.00,,,0.00,,2013-06-06 03:52:00,
2013-06-05 23:03:00,59.0,48.0,29.96,NNE,15,0.0,0.0,66,0.00,,,0.00,,2013-06-06 04:03:00,
2013-06-05 23:23:00,58.0,49.0,29.96,NNE,15,0.0,0.0,71,0.00,,,0.00,,2013-06-06 04:23:00,
2013-06-05 23:33:00,58.0,49.0,29.96,NNE,15,0.0,0.0,72,0.00,,,0.00,,2013-06-06 04:33:00,
2013-06-05 23:42:00,57.0,48.0,29.96,NNE,15,0.0,0.0,73,0.00,,,0.00,,2013-06-06 04:42:00,
2013-06-05 23:53:00,57.0,48.0,29.96,NNE,15,0.0,0.0,73,0.00,,,0.00,,2013-06-06 04:53:00,